Miscellaneous Local Product
Issued by NWS North Platte, NE

Home | Current Version | Previous Version | Text Only | Print | Product List | Glossary On
Versions: 1 2 3 4 5 6 7 8 9 10 11 12 13 14 15 16 17 18 19 20 21 22 23 24 25 26 27 28 29 30 31 32 33 34 35 36 37 38 39 40 41 42 43 44 45 46 47 48 49 50
000
AXUS43 KLBF 141010
MISLBF


WESTERN AND NORTH CENTRAL NEBRASKA HOURLY WEATHER ROUNDUP
NATIONAL WEATHER SERVICE NORTH PLATTE NE
500 AM CDT MON JUL 14 2014

***STATIONS NOT REPORTING VARIABLES SUCH AS SKY/WEATHER OR
PRESSURE ARE PROVIDED BY THE NEBRASKA DEPARTMENT OF
ROADS...RAWS...AND APRS NETWORKS...AND ARE NOT UNDER
NATIONAL WEATHER SERVICE QUALITY CONTROL***

...OBSERVATIONS IN AND NEAR THE EASTERN PANHANDLE OF NEBRASKA...

CITY           SKY/WX    TMP DP  RH WIND       PRES   REMARKS
PINE RIDGE     CLEAR     56  54  93 CALM      30.19R
CHADRON        CLEAR     55  54  96 S3        30.20R
ALLIANCE       CLEAR     57  55  93 N8        30.20R
SIDNEY         MOCLDY    62  58  86 W12       30.20F
WHITECLAY        N/A     55  53  94 CALM        N/A
RUSHVILLE        N/A     57  56  94 N7          N/A
GORDON           N/A     62  58  88 E5          N/A
CRESCENT LAKE    N/A     60  54  82 N6          N/A
LISCO            N/A     68  55  64 S20         N/A
BIG SPRINGS      N/A     63  61  92 W5          N/A
$$

...OBSERVATIONS IN NORTH CENTRAL NEBRASKA...

CITY           SKY/WX    TMP DP  RH WIND       PRES   REMARKS
VALENTINE      PTCLDY    60  52  74 N7        30.14R
THEDFORD       PTCLDY    63  60  90 CALM      30.14R
AINSWORTH      PTCLDY    62  59  90 NW5       30.12S
O`NEILL        CLOUDY    61  55  81 NW5       30.09S
ORD            MOCLDY    64  59  83 CALM      30.08S
BROKEN BOW     CLOUDY    64  61  90 N7        30.10R
BROWNLEE         N/A     63  57  81 N6          N/A
SPRINGVIEW       N/A     60  56  87 CALM        N/A
ROSE             N/A     64  61  88 CALM        N/A
NEWPORT          N/A    N/A N/A N/A NW5         N/A
SARGENT          N/A     63  61  94 CALM        N/A
COMSTOCK         N/A     68  67  98 CALM        N/A
CHAMBERS         N/A     61  55  81 CALM        N/A
EWING            N/A     60  56  88 CALM        N/A
$$

...OBSERVATIONS IN SOUTHWEST NEBRASKA AND FAR NORTHEAST COLORADO...

CITY           SKY/WX    TMP DP  RH WIND       PRES   REMARKS
WRAY           FAIR     N/A N/A N/A W6        30.15S
HOLYOKE        FAIR      64  59  82 W10       30.15F
IMPERIAL       CLEAR     62  59  90 N10       30.13R
OGALLALA       CLEAR     59  57  94 CALM      30.14S
NORTH PLATTE   CLEAR     62  58  86 E8        30.12R
MCCOOK         CLEAR     61  59  93 NW7       30.09R
LEXINGTON      PTCLDY    63  60  90 N6        30.10R
PAXTON           N/A     64  61  90 CALM        N/A
SUTHERLAND       N/A     62  59  91 NE8         N/A
BRADY            N/A     63  58  84 CALM        N/A
GOTHENBURG       N/A     68  60  74 N3          N/A
CALLAWAY         N/A     62  60  93 NE3         N/A
$$

...NORTH PLATTE AREA...

CITY           SKY/WX    TMP DP  RH WIND       PRES   REMARKS
AIRPORT        CLEAR     62  58  86 E8        30.12R
INDIAN HILLS     N/A     62  61  96 CALM        N/A
$$

...SOME WEATHER OBSERVATIONS FROM AROUND THE REGION...

CITY           SKY/WX    TMP DP  RH WIND       PRES   REMARKS
DENVER         PTCLDY    61  58  90 SW5       30.28R
LARAMIE        CLEAR     54  49  83 NW7       30.42R
CHEYENNE       CLEAR     59  52  77 NW8       30.34R
SCOTTSBLUFF    CLEAR     61  57  87 N7        30.22R
RAPID CITY     PTCLDY    54  47  77 NW13      30.22R
PIERRE         CLEAR     55  47  74 N14       30.12R
WINNER         FAIR      54  48  80 NW7       30.11R
SIOUX FALLS    PTCLDY    55  47  74 W8        30.01R
OMAHA          RAIN      69  60  73 N15       30.03R
GRAND ISLAND   RAIN      66  63  90 E6        30.07F FOG
KANSAS CITY    CLEAR     69  66  90 SW6       29.96R
WICHITA        PTCLDY    70  67  90 SW5       30.00S
HAYS           CLEAR     70  61  73 SW6       30.05R
LIBERAL        MOCLDY    70  61  73 N6        30.13R
GOODLAND       CLEAR     63  60  90 W12       30.14F
$$



USA.gov is the U.S. government's official web portal to all federal, state and local government web resources and services.